User: anonymous   Login
Location: *
(40.7873°S, 98.7174°E)
Time: 09:57:06
(UTC+00:00)
Language:

Cosmos 1741 Rocket - Orbit

View from above orbital plane
View from above orbital plane
View from above satellite
View from above satellite

Ground track
Ground track

The orbit data is extracted from the following two-line orbital elements,

1 16682U 86030B   22227.87610497  .00000164  00000-0  65551-4 0  9994
2 16682  74.0276   2.9788 0015519 244.9064 285.3783 14.36060659901528
Epoch (UTC): 15 August 2022 21:01:35
Eccentricity: 0.0015519
inclination: 74.0276°
perigee height: 760 km
apogee height: 782 km
right ascension of ascending node: 2.9788°
argument of perigee: 244.9064°
revolutions per day: 14.36060659
mean anomaly at epoch: 285.3783°
orbit number at epoch: 90152

The dashed part of the orbit path shows where the satellite is in the earth's shadow,  

DLR